Regional Weather Roundup
Issued by NWS

Home | Current Version | Previous Version | Text Only | Print | Product List | Glossary Off
Versions: 1 2 3 4 5 6 7 8 9 10 11 12 13 14 15 16 17 18 19 20 21 22 23 24 25 26 27 28 29 30 31 32 33 34 35 36 37 38 39 40 41 42 43 44 45 46 47 48 49 50

746
ASUS45 KPSR 121410
RWRAZ

ARIZONA HOURLY REGIONAL WEATHER ROUNDUP
NATIONAL WEATHER SERVICE PHOENIX AZ
700 AM MST FRI FEB 12 2016

NOTE: FAIR INDICATES FEW OR NO CLOUDS BELOW 12,000 FEET WITH NO
SIGNIFICANT WEATHER AND/OR OBSTRUCTIONS TO VISIBILITY.

AZZ001>003-036-121500-
NORTHWEST ARIZONA

CITY           SKY/WX    TMP DP  RH WIND       PRES   REMARKS
BULLHEAD CITY  CLEAR     50  30  46 S5        30.18R
KINGMAN        PTCLDY    36  23  59 E6        30.25R WCI  31
$$

AZZ004>008-015-016-018-121500-
NORTH CENTRAL ARIZONA

CITY           SKY/WX    TMP DP  RH WIND       PRES   REMARKS
GRAND CANYON   PTCLDY    22  17  81 NE5       30.40R WCI  16
WILLIAMS       CLEAR     28  18  64 S13       30.44S WCI  18
PRESCOTT       CLEAR     32  19  58 SW3       30.33S
FLAGSTAFF      PTCLDY    20  16  84 CALM      30.42R
PAYSON         CLEAR     52   9  17 E7        30.32S
PAGE           CLEAR     34  28  79 CALM      30.39R
$$

AZZ009>014-017-121500-
NORTHEAST ARIZONA

CITY           SKY/WX    TMP DP  RH WIND       PRES   REMARKS
WINSLOW        PTCLDY    22  17  81 SE3       30.41R
SAINT JOHNS    CLEAR     20  12  71 CALM      30.40R
WINDOW ROCK    CLEAR     24   0  35 CALM      30.44R
SHOW LOW       CLEAR     27  14  59 CALM      30.41R
$$

AZZ023-121500-
GREATER PHOENIX AREA

CITY           SKY/WX    TMP DP  RH WIND       PRES   REMARKS
PHOENIX        CLEAR     57  34  41 E7        30.14R
BUCKEYE        CLEAR     45  30  57 CALM      30.16S
GLENDALE       CLEAR     48  34  57 CALM      30.17R
LUKE AFB       CLEAR     47  33  59 N6        30.14S
DEER VALLEY    CLEAR     52  31  44 CALM      30.15R
SCOTTSDALE     CLEAR     50  36  58 CALM      30.17R
MESA-FALCON    CLEAR    N/A N/A N/A N9        30.16R
MESA-GATEWAY   CLEAR     48  32  53 SE7       30.17
CHANDLER       CLEAR     46  34  61 NE7       30.16R
$$

AZZ027-028-121500-
SOUTHWEST MARICOPA COUNTY AND PINAL COUNTY

CITY           SKY/WX    TMP DP  RH WIND       PRES   REMARKS
CASA GRANDE    CLEAR     46  27  46 CALM      30.17R
GILA BEND      FAIR      45  29  54 SE6       30.13R
$$

AZZ503-504-507>509-121500-
SOUTHEAST ARIZONA

CITY           SKY/WX    TMP DP  RH WIND       PRES   REMARKS
TUCSON         CLEAR     47  23  38 S9        30.22R
DAVIS-MONTHAN  CLEAR     45  22  39 S7        30.20R
RYAN FIELD     CLEAR     45  28  53 SE7       30.21R
NOGALES        CLEAR     36  18  48 CALM      30.25R
SIERRA VISTA   CLEAR     44  17  33 S3        30.30R
DOUGLAS        PTCLDY    29  11  47 E3        30.29R
SAFFORD        CLEAR     34  20  56 E5        30.26R WCI  30
$$

AZZ020-021-025-026-031-121500-
SOUTHWEST ARIZONA

CITY           SKY/WX    TMP DP  RH WIND       PRES   REMARKS
YUMA           CLEAR     56  29  35 N5        30.10R
$$

CAZ031-033-041-043-047-048-061-121500-
SOUTHERN CALIFORNIA

CITY           SKY/WX    TMP DP  RH WIND       PRES   REMARKS
DOWNTOWN L.A.  CLEAR     58  37  45 CALM      30.08S
L.A. AIRPORT   PTCLDY    57  39  51 E5        30.09R
SAN DIEGO      PTCLDY    59  34  39 CALM      30.09S
BURBANK        CLEAR     53  33  46 CALM      30.10R
ONTARIO        CLEAR     54  34  46 NE5       30.11R
RIVERSIDE      CLEAR     54  31  41 NE5       30.11S
PALM SPRINGS   CLEAR     57  26  30 NW9       30.13R
EL CENTRO NAS  PTCLDY    50  21  32 SW7       30.12R
IMPERIAL       CLEAR     50  27  40 SW5       30.10R
BLYTHE         CLEAR     50  24  36 NW5       30.14R
NEEDLES        CLEAR     50  25  37 SW5       30.17R
$$

NVZ020-UTZ003-121500-
SOUTHERN NEVADA-UTAH

CITY           SKY/WX    TMP DP  RH WIND       PRES   REMARKS
LAS VEGAS      CLEAR     48  21  34 SW5       30.21R
SALT LAKE CITY FOG       29  27  92 CALM      30.43S VSB 1/2
$$

NMZ009-TXZ055-121500-
NEW MEXICO-WEST TEXAS

CITY           SKY/WX    TMP DP  RH WIND       PRES   REMARKS
ALBUQUERQUE    CLOUDY    34  20  56 W6        30.40R WCI  29
EL PASO        MOCLDY    37  15  40 N3        30.30R
$$


........................KEY........................
SKY/WX - SKY CONDITION/WEATHER
TMP    - TEMPERATURE IN FAHRENHEIT
DP     - DEW POINT IN FAHRENHEIT
RH     - RELATIVE HUMIDITY IN PERCENT
WIND   - DIRECTION AND SPEED IN MILES PER HOUR (MPH)
VRB    - VARIABLE WIND DIRECTION
PRES   - MEAN SEA LEVEL PRESSURE IN INCHES OF MERCURY
         F - FALLING PRESSURE   R - RISING PRESSURE
         S - STEADY PRESSURE
VSB    - VISIBILITY IN MILES
HX     - HEAT INDEX IN FAHRENHEIT
WCI    - WIND CHILL INDEX IN FAHRENHEIT
TC     - TEMPERATURE IN CELSIUS WHICH IS ALSO KNOWN AS
         TEMPERATURE IN CENTIGRADE
AFB    - AIR FORCE BASE
         LUKE AFB IS LUKE AIR FORCE BASE
         DAVIS-MONTHAN IS DAVIS-MONTHAN AIR FORCE BASE
NAS    - NAVAL AIR STATION
         EL CENTRO NAS IS EL CENTRO NAVAL AIR STATION
N/A    - NOT AVAILABLE





USA.gov is the U.S. government's official web portal to all federal, state and local government web resources and services.